TimeCDT,TemperatureF,Dew PointF,Humidity,Sea Level PressureIn,VisibilityMPH,Wind Direction,Wind SpeedMPH,Gust SpeedMPH,PrecipitationIn,Events,Conditions,WindDirDegrees,DateUTC
12:53 AM,55.0,52.0,89,30.01,10.0,Calm,Calm,-,N/A,,Clear,0,2013-09-04 05:53:00
1:53 AM,53.1,51.1,93,30.02,10.0,Calm,Calm,-,N/A,,Clear,0,2013-09-04 06:53:00
2:53 AM,54.0,52.0,93,30.02,10.0,Calm,Calm,-,N/A,,Partly Cloudy,0,2013-09-04 07:53:00
3:53 AM,53.1,52.0,96,30.03,10.0,Calm,Calm,-,N/A,,Clear,0,2013-09-04 08:53:00
4:53 AM,57.0,55.0,93,30.03,10.0,Calm,Calm,-,N/A,,Clear,0,2013-09-04 09:53:00
5:53 AM,55.0,54.0,96,30.05,10.0,Calm,Calm,-,N/A,,Partly Cloudy,0,2013-09-04 10:53:00
6:53 AM,54.0,53.1,97,30.08,10.0,Calm,Calm,-,N/A,,Clear,0,2013-09-04 11:53:00
7:11 AM,55.4,53.6,94,30.08,10.0,Calm,Calm,-,N/A,,Mostly Cloudy,0,2013-09-04 12:11:00
7:35 AM,57.2,55.4,94,30.08,10.0,Calm,Calm,-,N/A,,Overcast,0,2013-09-04 12:35:00
7:43 AM,59.0,57.2,94,30.09,10.0,Calm,Calm,-,N/A,,Overcast,0,2013-09-04 12:43:00
7:53 AM,60.1,57.9,93,30.10,10.0,Calm,Calm,-,N/A,,Overcast,0,2013-09-04 12:53:00
8:51 AM,62.6,57.2,82,30.12,10.0,Variable,5.8,-,N/A,,Overcast,0,2013-09-04 13:51:00
8:53 AM,62.1,57.0,84,30.13,10.0,Variable,4.6,-,N/A,,Overcast,0,2013-09-04 13:53:00
9:20 AM,64.4,57.2,77,30.12,10.0,Variable,3.5,-,N/A,,Scattered Clouds,0,2013-09-04 14:20:00
9:53 AM,64.0,55.9,75,30.14,10.0,NNE,9.2,-,N/A,,Mostly Cloudy,30,2013-09-04 14:53:00
10:40 AM,66.2,55.4,68,30.16,10.0,NE,9.2,16.1,N/A,,Partly Cloudy,40,2013-09-04 15:40:00
10:53 AM,66.9,55.9,68,30.16,10.0,NE,9.2,-,N/A,,Clear,40,2013-09-04 15:53:00
11:53 AM,69.1,55.9,63,30.16,10.0,NE,8.1,-,N/A,,Clear,40,2013-09-04 16:53:00
12:53 PM,69.1,55.9,63,30.17,10.0,NNE,9.2,-,N/A,,Clear,30,2013-09-04 17:53:00
1:53 PM,72.0,55.9,57,30.16,10.0,Variable,5.8,-,N/A,,Clear,0,2013-09-04 18:53:00
2:53 PM,73.0,52.0,48,30.14,10.0,Variable,3.5,-,N/A,,Clear,0,2013-09-04 19:53:00
3:53 PM,73.0,51.1,46,30.15,10.0,Calm,Calm,-,N/A,,Clear,0,2013-09-04 20:53:00
4:53 PM,73.0,51.1,46,30.14,10.0,Variable,5.8,-,N/A,,Clear,0,2013-09-04 21:53:00
5:53 PM,71.1,52.0,51,30.15,10.0,Variable,5.8,-,N/A,,Clear,0,2013-09-04 22:53:00
6:53 PM,66.9,52.0,59,30.16,10.0,East,4.6,-,N/A,,Clear,80,2013-09-04 23:53:00
7:53 PM,57.9,53.1,84,30.17,10.0,NNE,3.5,-,N/A,,Clear,30,2013-09-05 00:53:00
8:53 PM,55.0,53.1,93,30.19,10.0,Calm,Calm,-,N/A,,Clear,0,2013-09-05 01:53:00
9:53 PM,52.0,50.0,93,30.19,10.0,Calm,Calm,-,N/A,,Clear,0,2013-09-05 02:53:00
10:53 PM,48.9,46.9,93,30.21,10.0,Calm,Calm,-,N/A,,Clear,0,2013-09-05 03:53:00
11:53 PM,48.0,45.0,89,30.22,10.0,Calm,Calm,-,N/A,,Clear,0,2013-09-05 04:53:00